Regional Weather Roundup
Issued by NWS

Home | Current Version | Previous Version | Graphics & Text | Print | Product List | Glossary On
Versions: 1 2 3 4 5 6 7 8 9 10 11 12 13 14 15 16 17 18 19 20 21 22 23 24 25 26 27
000
ASUS45 KTFX 230810
RWRMT
MONTANA REGIONAL WEATHER ROUNDUP
NATIONAL WEATHER SERVICE GREAT FALLS MT
200 AM MDT MON OCT 23 2017

NOTE: "FAIR" INDICATES FEW OR NO CLOUDS BELOW 12000 FEET WITH NO
SIGNIFICANT WEATHER AND/OR OBSTRUCTIONS TO VISIBILITY.

MTZ001>007-043-230900-
WEST OF THE DIVIDE

CITY           SKY/WX    TMP DP  RH WIND       PRES   REMARKS
KALISPELL      PTCLDY    39  32  76 SE8       30.35R
MISSOULA       LGT RAIN  39  38  96 CALM      30.42R
BUTTE          CLOUDY    38  29  70 CALM      30.39R
MULLAN PASS    CLOUDY    32  27  81 VRB5      30.39R
ANACONDA         N/A     39  27  60 W3        30.39R
DEER LODGE       N/A     37  32  81 E3        30.42R
EUREKA           N/A     46  28  49 MISG      30.33R
HAMILTON         N/A     43  36  75 CALM      30.44R
LIBBY            N/A     39  34  81 CALM      30.35R
PLAINS           N/A     44  32  63 NW1       30.37R
$$

MTZ008-052>055-230900-
SOUTHWEST MONTANA

CITY           SKY/WX    TMP DP  RH WIND       PRES   REMARKS
BOZEMAN        CLOUDY    43  24  47 W12       30.36S
DILLON         CLOUDY    40  24  53 VRB3      30.40R
W YELLOWSTONE  CLOUDY    34  21  60 SW7       30.42R WCI  28
ENNIS          CLOUDY    39  25  56 SW5       30.46R
THREE FORKS      N/A     43  25  49 W5        30.33R
TWIN BRIDGES     N/A     38  26  62 CALM      30.34R
$$

MTZ009-010-012-014-046-048-049-054-230900-
EAST SLOPES AND CENTRAL MONTANA

CITY           SKY/WX    TMP DP  RH WIND       PRES   REMARKS
CUT BANK       PTCLDY    42  26  53 W25G32    30.18R
GREAT FALLS    CLOUDY    45  22  40 W22G33    30.21R
MALMSTROM AFB  CLEAR     46  23  40 W20G28    30.22R
HELENA         CLOUDY    46  31  55 W15       30.34R
BOWMANS CRNR   MOCLDY    41  23  48 W32       30.22S
CHOTEAU          N/A     46  23  39 W23G35    30.22R
FAIRFIELD        N/A     44  24  45 W17       30.21R
POWER            N/A     40  25  53 W14       30.20R
RAYNESFORD       N/A     45  22  40 SW22G32   30.22R
ULM              N/A     44  26  48 W17       30.23R
$$

MTZ011-013-016-021-045-047-050-051-230900-
NORTH CENTRAL MONTANA

CITY           SKY/WX    TMP DP  RH WIND       PRES   REMARKS
HAVRE          CLEAR     42  27  55 W7        30.12R
LEWISTOWN      CLEAR     40  22  48 NW5       30.20R
N BAR RANCH      N/A     41  19  42 NW12G18   30.21R
CHINOOK          N/A     43  28  56 SW10      30.11R
DENTON           N/A     46  24  43 W25G35    30.16R
GEYSER           N/A     40  24  54 W21       30.20R
GRASS RANGE      N/A     46  22  37 W26G36    30.15R
JUDITH GAP       N/A     42  18  39 W23G32    30.20R
STANFORD         N/A     44  19  37 W26G36    30.20R
WINIFRED         N/A     47  22  38 W24G33    30.17R
$$

MTZ017>020-022>027-061-062-230900-
NORTHEAST MONTANA

CITY           SKY/WX    TMP DP  RH WIND       PRES   REMARKS
GLASGOW        CLOUDY    42  35  76 W15       30.03R
JORDAN           N/A     48  26  42 W22       30.08R
SIDNEY         CLOUDY    47  37  68 W26G33    29.93R
WOLF POINT     MOCLDY    46  37  71 W16G25    29.99R
MALTA          PTCLDY    45  28  53 W21G30    30.08R
PLENTYWOOD       N/A     43  34  70 NW18G24   29.90R
POPLAR           N/A     46  36  66 W18G25    29.97R
SCOBEY           N/A     43  29  58 W24       29.92R
$$

MTZ028>42-056>058-230900-
SOUTHCENTRAL AND SOUTHEAST MONTANA

CITY           SKY/WX    TMP DP  RH WIND       PRES   REMARKS
BAKER          CLOUDY    43  36  76 W20       30.04R
BILLINGS       CLEAR     46  24  42 W18G26    30.22R
LIVINGSTON     CLOUDY    45  22  40 W32G41    30.30R
MILES CITY     CLOUDY    49  29  46 W20G25    30.10R
EKALAKA          N/A     44  25  47 W20       30.04R
FORSYTH          N/A     48  23  37 W7        30.13R
HARLOWTON        N/A     42  22  46 W25G36    30.23R
LAUREL           N/A     48  23  37 W21G28    30.26R
$$

REGIONAL REPORTS...DAKOTAS

CITY           SKY/WX    TMP DP  RH WIND       PRES   REMARKS
WILLISTON        N/A    N/A N/A N/A MISG      29.91R
MINOT          PTCLDY    46  34  62 W22G32    29.77R
DICKINSON      CLOUDY    46  36  68 W26G35    29.90R
BEACH          CLOUDY    45  36  70 W23G32    30.01R
CROSBY         CLOUDY    41  36  81 NW14      29.86R
TIOGA            N/A     41  32  70 NW12      29.85R
BISMARCK       CLOUDY    50  38  63 W14       29.83R
GRAND FORKS    CLOUDY    55  48  77 SW13      29.59R
FARGO          MOCLDY    53  41  63 W13       29.65R
BUFFALO SD       N/A     45  33  63 NW28G36   29.96R
RAPID CITY     PTCLDY    52  21  29 NW29G39   30.05R
$$

REGIONAL REPORTS...WYOMING/IDAHO/WASHINGTON

CITY           SKY/WX    TMP DP  RH WIND       PRES   REMARKS
GILLETTE       CLEAR     45  19  35 NW25G33   30.17R
SHERIDAN       CLEAR     46  23  40 NW21      30.21R
BUFFALO WY     PTCLDY    42  21  43 N12       30.22R
CODY           CLOUDY    46  20  35 NW10G18   30.27R
YELLOWSTONE LA   N/A     31  19  61 VRB5      30.44R
IDAHO FALLS    CLOUDY    42  38  85 SW3       30.42R
SALMON         CLOUDY    39  31  72 SE5       30.45R
BOISE          PTCLDY    44  42  93 CALM      30.48R
SPOKANE        MOCLDY    43  34  70 W13       30.43R
$$

REGIONAL REPORTS...ALBERTA

CITY           SKY/WX    TMP DP  RH WIND       PRES   REMARKS
EDMONTON       PTCLDY    34  25  69 W9        29.97R WCI  26
CALGARY        PTCLDY    43  19  39 W8        30.07R
LETHBRIDGE     CLEAR     43  25  49 W16       30.14R
MEDICINE HAT   CLEAR     39  25  56 W14       30.07R WCI  31
$$

REGIONAL REPORTS...SASKATCHEWAN

CITY           SKY/WX    TMP DP  RH WIND       PRES   REMARKS
SWIFT CURRENT  MOCLDY    39  30  70 W15G22    29.97R WCI  31
REGINA         CLOUDY    39  37  93 NW15      29.87R WCI  31
SASKATOON      MOCLDY    37  34  87 W9        29.87R WCI  31
$$




USA.gov is the U.S. government's official web portal to all federal, state and local government web resources and services.